WX7FGZ-3 Weather Reports


time (UTC)temp
C
wind
direction
speed
KPH
gust
KPH
rain 1hr
cm
rain 24hr
cm
rain mn
cm
humidity
%
barometer
mb
20260906232714 26 281 8.0 11.3 0.00 0.00 0.00 35 1005.7
20260906231715 26 273 12.9 19.3 0.00 0.00 0.00 33 1005.8
20260906225713 28 214 8.0 17.7 0.00 0.00 0.00 32 1005.8
20260906225213 29 216 8.0 16.1 0.00 0.00 0.00 30 1005.9
20260906222711 29 255 4.8 16.1 0.00 0.00 0.00 31 1006.0
20260906185659 27 5 8.0 17.7 0.00 0.00 0.00 32 1008.7
20260906184658 27 355 6.4 17.7 0.00 0.00 0.00 33 1009.0
20260906172654 26 307 3.2 9.7 0.00 0.00 0.00 35 1009.8
20260906172153 26 281 3.2 14.5 0.00 0.00 0.00 36 1009.9
20260906171653 26 243 3.2 4.8 0.00 0.00 0.00 35 1009.9
20260906165652 25 240 1.6 9.7 0.00 0.00 0.00 36 1010.0
20260906163651 26 275 6.4 16.1 0.00 0.00 0.00 36 1010.4
20260906163151 26 289 3.2 12.9 0.00 0.00 0.00 36 1010.2
20260906161650 25 155 1.6 6.4 0.00 0.00 0.00 35 1010.3
20260906161150 25 155 1.6 3.2 0.00 0.00 0.00 35 1010.3
20260906155149 25 156 3.2 9.7 0.00 0.00 0.00 36 1010.5
20260906154648 25 157 3.2 8.0 0.00 0.00 0.00 35 1010.6
20260906154148 25 157 3.2 11.3 0.00 0.00 0.00 37 1010.6
20260906153147 24 155 1.6 3.2 0.00 0.00 0.00 37 1010.9
20260906152147 23 155 1.6 6.4 0.00 0.00 0.00 37 1011.0
20260906151146 23 155 1.6 3.2 0.00 0.00 0.00 36 1011.2
20260906150646 22 155 3.2 9.7 0.00 0.00 0.00 36 1011.2
20260906145645 22 155 3.2 4.8 0.00 0.00 0.00 38 1011.1
20260906144644 21 156 6.4 11.3 0.00 0.00 0.00 39 1011.0
20260906144144 20 157 4.8 9.7 0.00 0.00 0.00 40 1011.0
20260906143644 20 157 4.8 8.0 0.00 0.00 0.00 43 1011.1
20260906143144 20 157 4.8 9.7 0.00 0.00 0.00 42 1011.1
20260906142643 19 157 6.4 9.7 0.00 0.00 0.00 44 1011.1
20260906142143 19 157 6.4 11.3 0.00 0.00 0.00 45 1011.1
20260906135142 16 159 6.4 12.9 0.00 0.00 0.00 51 1011.2
20260906133640 14 157 8.0 14.5 0.00 0.00 0.00 53 1011.0
20260906133140 14 154 8.0 14.5 0.00 0.00 0.00 54 1011.1
20260906132640 13 153 9.7 14.5 0.00 0.00 0.00 55 1011.2
20260906132140 13 155 9.7 16.1 0.00 0.00 0.00 55 1011.2
20260906131139 13 160 6.4 11.3 0.00 0.00 0.00 56 1011.3
20260906130138 12 159 8.0 14.5 0.00 0.00 0.00 56 1011.1
20260906125638 12 159 8.0 12.9 0.00 0.00 0.00 56 1011.2
20260906123637 12 165 6.4 14.5 0.00 0.00 0.00 56 1011.2
20260906120635 12 159 8.0 12.9 0.00 0.00 0.00 56 1011.0
20260906105631 13 159 8.0 12.9 0.00 0.00 0.00 53 1010.6
20260906065617 12 168 6.4 11.3 0.00 0.00 0.00 50 1011.4
20260906065117 12 169 8.0 11.3 0.00 0.00 0.00 49 1011.3
20260906064617 12 169 8.0 9.7 0.00 0.00 0.00 49 1011.4
20260906063616 12 171 6.4 11.3 0.00 0.00 0.00 49 1011.3
20260906061615 12 173 6.4 11.3 0.00 0.00 0.00 49 1011.3
20260906060615 13 176 6.4 11.3 0.00 0.00 0.00 47 1011.5
20260906060114 13 178 6.4 9.7 0.00 0.00 0.00 47 1011.3
20260906055614 13 180 4.8 11.3 0.00 0.00 0.00 47 1011.4
20260906055114 13 184 4.8 8.0 0.00 0.00 0.00 47 1011.4
20260906054613 13 185 4.8 9.7 0.00 0.00 0.00 46 1011.5
20260906054113 13 186 4.8 6.4 0.00 0.00 0.00 46 1011.4
20260906053613 13 186 4.8 9.7 0.00 0.00 0.00 45 1011.5
20260906053113 13 189 4.8 8.0 0.00 0.00 0.00 45 1011.4
20260906052612 13 191 4.8 8.0 0.00 0.00 0.00 43 1011.5
20260906051612 14 192 4.8 9.7 0.00 0.00 0.00 45 1011.4
20260906050611 14 217 4.8 8.0 0.00 0.00 0.00 45 1011.5
20260906050111 14 225 4.8 8.0 0.00 0.00 0.00 44 1011.5
20260906045111 14 233 3.2 6.4 0.00 0.00 0.00 43 1011.6
20260906014059 22 323 0.0 0.0 0.00 0.00 0.00 27 1010.5
20260906012559 23 323 1.6 6.4 0.00 0.00 0.00 25 1010.5
20260906012058 23 323 1.6 4.8 0.00 0.00 0.00 25 1010.4
20260906011058 25 323 1.6 4.8 0.00 0.00 0.00 23 1010.5
20260906010557 25 324 3.2 6.4 0.00 0.00 0.00 23 1010.4
20260906005557 25 325 3.2 4.8 0.00 0.00 0.00 23 1010.5
20260906004556 25 325 4.8 6.4 0.00 0.00 0.00 22 1010.5
20260906003556 26 327 8.0 17.7 0.00 0.00 0.00 22 1010.6
20260906002055 25 306 6.4 14.5 0.00 0.00 0.00 22 1010.6
20260906001554 26 239 4.8 9.7 0.00 0.00 0.00 22 1010.6
20260906001055 26 240 4.8 11.3 0.00 0.00 0.00 22 1010.4
20260906000054 26 220 4.8 6.4 0.00 0.00 0.00 23 1010.4
20260905235053 26 309 3.2 14.5 0.00 0.00 0.00 23 1010.3